This is the latest recevied weather packets stored in our database for station/object NO4D. If no packets are shown the sender has not sent any weather packets the latest 10 day(s).
| Time | Temp. | Humidity | Pressure | Rain* | Wind** | Luminosity | Snow |
|---|---|---|---|---|---|---|---|
| 1777465028 | 17.22° C | 97% | 1013.4 hPa | 0 mm | - | 105 W/m² | - |
| 1777464722 | 17.22° C | 98% | 1013.6 hPa | 0 mm | - | 90 W/m² | - |
| 1777464419 | 17.22° C | 98% | 1013.5 hPa | 0 mm | - | 67 W/m² | - |
| 1777464115 | 16.67° C | 98% | 1013.4 hPa | 0 mm | - | 53 W/m² | - |
| 1777463815 | 16.67° C | 99% | 1013.7 hPa | 0 mm | - | 52 W/m² | - |
| 1777463510 | 16.67° C | 99% | 1014 hPa | 0 mm | - | 56 W/m² | - |
| 1777463206 | 16.67° C | 99% | 1014 hPa | 0 mm | - | 40 W/m² | - |
| 1777462902 | 16.67° C | 99% | 1013.8 hPa | 0 mm | - | 29 W/m² | - |
| 1777462599 | 16.67° C | 99% | 1014 hPa | 0 mm | - | 37 W/m² | - |
| 1777462294 | 16.67° C | 99% | 1013.9 hPa | 0 mm | - | 40 W/m² | - |
| 1777461990 | 16.67° C | 99% | 1014 hPa | 0 mm | - | 21 W/m² | - |
| 1777461687 | 16.67° C | 99% | 1014.1 hPa | 0 mm | - | 16 W/m² | - |
| 1777461387 | 16.67° C | 99% | 1014.3 hPa | 0 mm | - | 15 W/m² | - |
| 1777461084 | 16.11° C | 99% | 1014.2 hPa | 0 mm | - | 9 W/m² | - |
| 1777460780 | 16.11° C | 99% | 1014.1 hPa | 0 mm | - | 6 W/m² | - |
| 1777460475 | 16.11° C | 99% | 1014.1 hPa | 0 mm | - | 3 W/m² | - |
| 1777460176 | 16.11° C | 99% | 1014 hPa | 0 mm | - | 1 W/m² | - |
| 1777459874 | 16.11° C | 99% | 1013.9 hPa | 0 mm | - | 0 W/m² | - |
| 1777459570 | 16.11° C | 99% | 1013.9 hPa | 0 mm | - | 0 W/m² | - |
| 1777459268 | 16.11° C | 99% | 1014.1 hPa | 0 mm | - | 0 W/m² | - |
| 1777458966 | 16.11° C | 99% | 1014.3 hPa | 0 mm | - | 0 W/m² | - |
| 1777458662 | 16.11° C | 99% | 1014.4 hPa | 0 mm | - | 0 W/m² | - |
| 1777458359 | 16.11° C | 99% | 1014.4 hPa | 0 mm | - | 0 W/m² | - |
| 1777458054 | 16.11° C | 99% | 1014.6 hPa | 0 mm | - | 0 W/m² | - |
| 1777457750 | 16.11° C | 99% | 1014.6 hPa | 0 mm | - | 0 W/m² | - |
* Rain latest hour (hover to see other rain measurements)
** Current wind speed in m/s (hover to see current wind gust speed)